Regional Weather Roundup
Issued by NWS Raleigh/Durham, NC

Home | Current Version | Previous Version | Text Only | Print | Product List | Glossary On
Versions: 1 2 3 4 5 6 7 8 9 10 11 12 13 14 15 16 17 18 19 20 21 22 23 24 25 26 27 28 29 30 31 32 33 34 35 36 37 38 39 40 41 42 43 44 45 46 47 48 49
000
ASUS42 KRAH 270510
RWRRAH
NORTH CAROLINA WEATHER ROUNDUP
NATIONAL WEATHER SERVICE RALEIGH NC
100 AM EDT FRI MAY 27 2016

NOTE: "FAIR" INDICATES FEW OR NO CLOUDS BELOW 12,000 FEET WITH NO
SIGNIFICANT WEATHER AND/OR OBSTRUCTIONS TO VISIBILITY.

NCZ001-053-055-056-065-067-270600-
WESTERN NORTH CAROLINA

CITY           SKY/WX    TMP DP  RH WIND       PRES   REMARKS
ASHEVILLE      CLOUDY    64  60  87 SE3       30.19R
JEFFERSON      CLOUDY    64  58  81 W3        30.21R
MORGANTON        N/A     64  64 100 CALM      30.18R FOG
HICKORY        CLOUDY    70  66  87 CALM      30.12R
RUTHERFORDTON  CLEAR     65  65 100 CALM      30.14R FOG
MOUNT AIRY     CLOUDY    69  66  91 CALM      30.14S
BOONE          PTCLDY    60  59  96 CALM      30.22R
$$

NCZ021-022-025-041-071-084-088-270600-
CENTRAL NORTH CAROLINA

CITY           SKY/WX    TMP DP  RH WIND       PRES   REMARKS
CHARLOTTE      PTCLDY    73  62  68 S7        30.12R
GREENSBORO     PTCLDY    73  62  68 S9        30.11R
WINSTON-SALEM  PTCLDY    74  62  66 S5        30.12R
RALEIGH-DURHAM PTCLDY    73  64  73 SW8       30.12R
FORT BRAGG     CLEAR     73  62  69 S8        30.12S
FAYETTEVILLE   CLEAR     71  63  75 S7        30.13S
BURLINGTON     CLEAR     73  62  68 S12G17    30.11R
LAURINBURG     CLEAR     70  60  70 SW7       30.14S
$$

NCZ011-015-027-028-043-044-047-080-103-270600-
NORTHEASTERN NORTH CAROLINA

CITY           SKY/WX    TMP DP  RH WIND       PRES   REMARKS
ROCKY MT-WILSO CLEAR     71  63  75 S6        30.12S
GREENVILLE     CLEAR     72  64  78 S9        30.14F
WASHINGTON     CLEAR     69  64  84 S5        30.14F
ELIZABETH CITY CLEAR     71  65  81 S9        30.13F
MANTEO         NOT AVBL
CAPE HATTERAS  CLEAR     72  64  76 SW7       30.17S
$$

NCZ078-087-090-091-093-098-101-270600-
SOUTHEASTERN NORTH CAROLINA

CITY           SKY/WX    TMP DP  RH WIND       PRES   REMARKS
LUMBERTON      CLEAR     69  63  81 SW3       30.14S
GOLDSBORO      CLEAR     70  68  95 SW5       30.13R
KINSTON        CLEAR     70  64  80 S8        30.14F
KENANSVILLE    CLEAR     67  62  83 CALM      30.15S
NEW BERN       CLEAR     67  63  87 S5        30.16F
CHERRY POINT   CLEAR     68  62  81 S3        30.16F
BEAUFORT       CLEAR     71  65  81 S6        30.15F
JACKSONVILLE   CLEAR     68  64  87 S5        30.14F
WILMINGTON     CLEAR     70  65  84 SE5       30.14F
$$




USA.gov is the U.S. government's official web portal to all federal, state and local government web resources and services.